PAA1649 KDEN-KTEX

Flight info

Callsign PAA1649
Flight time 1h 0m
Altitude 20000
Route ROCKI7 HBU
Aircraft DC6/M-SDE1FGHIRWXY/S

Departure

Time 2026-05-08 19:51
Airport Denver International Airport (KDEN)

Arrival

Time 2026-05-08 20:51
Airport Telluride Regional Airport (KTEX)
Time Latitude Longitude Altitude Speed Heading
2026-05-08 19:17 39.85944 -104.66770 5387 ft 0 kts 181°
2026-05-08 19:26 39.85957 -104.66769 5386 ft 3 kts 181°
2026-05-08 19:26 39.85976 -104.66769 5386 ft 3 kts 181°
2026-05-08 19:26 39.85995 -104.66768 5386 ft 3 kts 181°
2026-05-08 19:27 39.86003 -104.66768 5386 ft 0 kts 181°
2026-05-08 19:39 39.85997 -104.66776 5386 ft 2 kts 265°
2026-05-08 19:40 39.86007 -104.66868 5386 ft 19 kts 280°
2026-05-08 19:40 39.86066 -104.67088 5386 ft 34 kts 275°
2026-05-08 19:40 39.86066 -104.67423 5386 ft 39 kts 270°
2026-05-08 19:40 39.86070 -104.67782 5386 ft 40 kts 269°
2026-05-08 19:41 39.86067 -104.68121 5386 ft 33 kts 261°
2026-05-08 19:41 39.86032 -104.68353 5372 ft 25 kts 275°
2026-05-08 19:41 39.86005 -104.68518 5363 ft 8 kts 176°
2026-05-08 19:41 39.85911 -104.68512 5365 ft 22 kts 180°
2026-05-08 19:42 39.85735 -104.68514 5368 ft 25 kts 180°
2026-05-08 19:42 39.85567 -104.68516 5370 ft 23 kts 182°
2026-05-08 19:42 39.85409 -104.68518 5374 ft 22 kts 181°
2026-05-08 19:42 39.85255 -104.68520 5370 ft 22 kts 185°
2026-05-08 19:43 39.85203 -104.68663 5363 ft 20 kts 269°
2026-05-08 19:43 39.85200 -104.68875 5357 ft 28 kts 269°
2026-05-08 19:43 39.85200 -104.69151 5347 ft 32 kts 268°
2026-05-08 19:43 39.85201 -104.69443 5338 ft 30 kts 270°
2026-05-08 19:44 39.85201 -104.69523 5336 ft 0 kts 269°
2026-05-08 19:46 39.85201 -104.69565 5333 ft 14 kts 270°
2026-05-08 19:47 39.85229 -104.69659 5334 ft 9 kts 348°
2026-05-08 19:47 39.85246 -104.69662 5333 ft 0 kts
2026-05-08 19:49 39.85384 -104.69658 5338 ft 44 kts
2026-05-08 19:49 39.85840 -104.69652 5342 ft 86 kts
2026-05-08 19:50 39.86569 -104.69649 5353 ft 118 kts
2026-05-08 19:50 39.87406 -104.69659 5554 ft 122 kts
2026-05-08 19:50 39.88254 -104.69663 5860 ft 123 kts
2026-05-08 19:50 39.89148 -104.69628 5997 ft 136 kts
2026-05-08 19:51 39.90152 -104.69568 6078 ft 155 kts
2026-05-08 19:51 39.91280 -104.69497 6227 ft 169 kts
2026-05-08 19:51 39.92461 -104.69838 6332 ft 188 kts 327°
2026-05-08 19:51 39.93160 -104.71292 6511 ft 198 kts 280°
2026-05-08 19:52 39.92920 -104.73038 6704 ft 198 kts 250°
2026-05-08 19:52 39.92585 -104.74757 6997 ft 194 kts 262°
2026-05-08 19:52 39.92326 -104.76478 7245 ft 194 kts 261°
2026-05-08 19:52 39.92036 -104.78191 7495 ft 194 kts 260°
2026-05-08 19:53 39.91738 -104.79898 7728 ft 193 kts 260°
2026-05-08 19:53 39.91434 -104.81603 7967 ft 193 kts 260°
2026-05-08 19:53 39.91122 -104.83298 8215 ft 192 kts 259°
2026-05-08 19:53 39.90799 -104.84985 8470 ft 192 kts 260°
2026-05-08 19:54 39.90473 -104.86666 8712 ft 191 kts 260°
2026-05-08 19:54 39.90153 -104.88342 8969 ft 190 kts 259°
2026-05-08 19:54 39.89837 -104.89994 9193 ft 190 kts 260°
2026-05-08 19:54 39.89294 -104.91584 9318 ft 198 kts 232°
2026-05-08 19:55 39.88063 -104.92389 9426 ft 209 kts 189°
2026-05-08 19:55 39.86637 -104.91949 9610 ft 211 kts 153°
2026-05-08 19:55 39.85279 -104.91493 9870 ft 205 kts 189°
2026-05-08 19:55 39.84074 -104.92322 10086 ft 196 kts 236°
2026-05-08 19:56 39.83705 -104.93928 10290 ft 185 kts 281°
2026-05-08 19:56 39.84284 -104.95359 10519 ft 178 kts 311°
2026-05-08 19:56 39.84945 -104.96722 10720 ft 178 kts 309°
2026-05-08 19:56 39.85778 -104.97898 10933 ft 177 kts 313°
2026-05-08 19:57 39.86496 -104.99202 11125 ft 179 kts 302°
2026-05-08 19:57 39.86946 -105.00715 11315 ft 181 kts 288°
2026-05-08 19:57 39.87212 -105.02322 11542 ft 181 kts 285°
2026-05-08 19:57 39.87467 -105.03927 11755 ft 181 kts 285°
2026-05-08 19:58 39.87724 -105.05528 11976 ft 180 kts 285°
2026-05-08 19:58 39.87983 -105.07126 12198 ft 180 kts 285°
2026-05-08 19:58 39.88239 -105.08721 12423 ft 180 kts 285°
2026-05-08 19:58 39.88497 -105.10312 12647 ft 179 kts 286°
2026-05-08 19:59 39.88752 -105.11896 12878 ft 179 kts 286°
2026-05-08 19:59 39.89007 -105.13477 13110 ft 178 kts 286°
2026-05-08 19:59 39.89260 -105.15052 13335 ft 178 kts 286°
2026-05-08 19:59 39.89514 -105.16623 13561 ft 177 kts 286°
2026-05-08 20:00 39.89766 -105.18187 13767 ft 176 kts 285°
2026-05-08 20:00 39.90016 -105.19747 13982 ft 176 kts 285°
2026-05-08 20:00 39.90203 -105.21319 14142 ft 179 kts 274°
2026-05-08 20:00 39.89681 -105.22844 14175 ft 199 kts 235°
2026-05-08 20:01 39.88620 -105.23990 14365 ft 191 kts 233°
2026-05-08 20:01 39.87759 -105.25262 14511 ft 186 kts 239°
2026-05-08 20:01 39.86861 -105.26505 14641 ft 190 kts 233°
2026-05-08 20:01 39.85907 -105.27711 14770 ft 191 kts 234°
2026-05-08 20:02 39.84964 -105.28928 14926 ft 191 kts 235°
2026-05-08 20:02 39.84023 -105.30146 15092 ft 191 kts 235°
2026-05-08 20:02 39.83075 -105.31363 15252 ft 192 kts 235°
2026-05-08 20:02 39.82128 -105.32583 15424 ft 191 kts 235°
2026-05-08 20:03 39.81183 -105.33803 15558 ft 192 kts 236°
2026-05-08 20:03 39.80230 -105.35028 15703 ft 193 kts 236°
2026-05-08 20:03 39.79279 -105.36255 15861 ft 192 kts 235°
2026-05-08 20:03 39.78326 -105.37476 15988 ft 192 kts 234°
2026-05-08 20:04 39.77376 -105.38700 16119 ft 192 kts 235°
2026-05-08 20:04 39.76411 -105.39950 16105 ft 199 kts 235°
2026-05-08 20:04 39.75407 -105.41237 16106 ft 206 kts 234°
2026-05-08 20:04 39.74370 -105.42569 16106 ft 214 kts 234°
2026-05-08 20:05 39.73312 -105.43931 16092 ft 220 kts 234°
2026-05-08 20:05 39.72207 -105.45347 16087 ft 226 kts 233°
2026-05-08 20:05 39.71053 -105.46833 16072 ft 234 kts 233°
2026-05-08 20:05 39.69887 -105.48327 16141 ft 234 kts 233°
2026-05-08 20:06 39.68760 -105.49755 16428 ft 226 kts 233°
2026-05-08 20:06 39.67648 -105.51171 16668 ft 221 kts 234°
2026-05-08 20:06 39.66779 -105.52742 16806 ft 210 kts 249°
2026-05-08 20:06 39.66036 -105.54366 16993 ft 209 kts 246°
2026-05-08 20:07 39.65201 -105.55918 17155 ft 210 kts 242°
2026-05-08 20:07 39.64315 -105.57424 17264 ft 209 kts 243°
2026-05-08 20:07 39.63448 -105.58933 17406 ft 208 kts 244°
2026-05-08 20:07 39.62587 -105.60437 17519 ft 207 kts 243°
2026-05-08 20:08 39.61725 -105.61937 17683 ft 207 kts 243°
2026-05-08 20:08 39.60866 -105.63437 17959 ft 207 kts 243°
2026-05-08 20:08 39.60013 -105.64933 18197 ft 205 kts 244°
2026-05-08 20:08 39.59159 -105.66419 18283 ft 206 kts 244°
2026-05-08 20:09 39.58301 -105.67912 18478 ft 206 kts 244°
2026-05-08 20:09 39.57446 -105.69396 18637 ft 205 kts 244°
2026-05-08 20:09 39.56594 -105.70879 18735 ft 205 kts 245°
2026-05-08 20:09 39.55744 -105.72362 18824 ft 205 kts 245°
2026-05-08 20:10 39.54892 -105.73839 18874 ft 204 kts 244°
2026-05-08 20:10 39.54044 -105.75312 18948 ft 204 kts 244°
2026-05-08 20:10 39.53197 -105.76784 19005 ft 204 kts 244°
2026-05-08 20:10 39.52363 -105.78239 19020 ft 204 kts 248°
2026-05-08 20:11 39.51607 -105.79816 18970 ft 211 kts 249°
2026-05-08 20:11 39.50763 -105.81423 18968 ft 220 kts 244°
2026-05-08 20:11 39.49812 -105.83034 19032 ft 219 kts 243°
2026-05-08 20:11 39.48933 -105.84506 19436 ft 201 kts 244°
2026-05-08 20:12 39.48118 -105.85918 19696 ft 191 kts 245°
2026-05-08 20:12 39.47341 -105.87278 19899 ft 185 kts 245°
2026-05-08 20:12 39.46572 -105.88624 19900 ft 191 kts 245°
2026-05-08 20:12 39.45769 -105.90003 19933 ft 194 kts 244°
2026-05-08 20:13 39.44950 -105.91421 19939 ft 201 kts 244°
2026-05-08 20:13 39.44098 -105.92894 19944 ft 208 kts 243°
2026-05-08 20:13 39.43214 -105.94423 19940 ft 217 kts 243°
2026-05-08 20:13 39.42294 -105.96005 19958 ft 223 kts 243°
2026-05-08 20:14 39.41350 -105.97638 19976 ft 231 kts 243°
2026-05-08 20:14 39.40370 -105.99330 19996 ft 239 kts 242°
2026-05-08 20:14 39.39358 -106.01073 20016 ft 246 kts 242°
2026-05-08 20:14 39.38319 -106.02860 20037 ft 252 kts 242°
2026-05-08 20:15 39.37255 -106.04684 20058 ft 256 kts 242°
2026-05-08 20:15 39.36175 -106.06534 20082 ft 258 kts 242°
2026-05-08 20:15 39.35101 -106.08376 20099 ft 256 kts 242°
2026-05-08 20:15 39.34042 -106.10195 20108 ft 251 kts 242°
2026-05-08 20:16 39.32992 -106.11999 20130 ft 252 kts 242°
2026-05-08 20:16 39.31939 -106.13800 20156 ft 250 kts 242°
2026-05-08 20:16 39.30892 -106.15588 20179 ft 249 kts 242°
2026-05-08 20:16 39.29855 -106.17372 20204 ft 248 kts 242°
2026-05-08 20:17 39.28814 -106.19153 20224 ft 249 kts 242°
2026-05-08 20:17 39.27767 -106.20940 20243 ft 250 kts 241°
2026-05-08 20:17 39.26713 -106.22713 20266 ft 247 kts 244°
2026-05-08 20:17 39.25789 -106.24564 20264 ft 244 kts 246°
2026-05-08 20:18 39.24850 -106.26397 20249 ft 246 kts 243°
2026-05-08 20:18 39.23804 -106.28157 20258 ft 248 kts 240°
2026-05-08 20:18 39.22743 -106.29908 20261 ft 247 kts 241°
2026-05-08 20:18 39.21707 -106.31674 20264 ft 247 kts 242°
2026-05-08 20:19 39.20676 -106.33441 20257 ft 247 kts 241°
2026-05-08 20:19 39.19641 -106.35199 20259 ft 246 kts 241°
2026-05-08 20:19 39.18606 -106.36953 20258 ft 245 kts 242°
2026-05-08 20:19 39.17576 -106.38700 20261 ft 245 kts 241°
2026-05-08 20:20 39.16545 -106.40446 20258 ft 244 kts 241°
2026-05-08 20:20 39.15523 -106.42181 20244 ft 241 kts 241°
2026-05-08 20:20 39.14510 -106.43905 20221 ft 242 kts 241°
2026-05-08 20:20 39.13487 -106.45640 20198 ft 245 kts 241°
2026-05-08 20:21 39.12458 -106.47383 20181 ft 243 kts 241°
2026-05-08 20:21 39.11446 -106.49079 20150 ft 242 kts 241°
2026-05-08 20:21 39.10429 -106.50795 20139 ft 241 kts 241°
2026-05-08 20:21 39.09414 -106.52524 20109 ft 242 kts 242°
2026-05-08 20:22 39.08397 -106.54256 20093 ft 243 kts 241°
2026-05-08 20:22 39.07373 -106.55982 20072 ft 242 kts 241°
2026-05-08 20:22 39.06344 -106.57704 20039 ft 242 kts 240°
2026-05-08 20:22 39.05651 -106.58872 20031 ft 243 kts 241°
2026-05-08 20:23 39.04292 -106.61174 19989 ft 246 kts 241°
2026-05-08 20:23 39.03253 -106.62927 19992 ft 247 kts 240°
2026-05-08 20:23 39.02210 -106.64674 19987 ft 246 kts 240°
2026-05-08 20:23 39.01172 -106.66415 19988 ft 246 kts 240°
2026-05-08 20:24 39.00138 -106.68165 19983 ft 245 kts 240°
2026-05-08 20:24 38.99101 -106.69906 19984 ft 246 kts 240°
2026-05-08 20:24 38.98062 -106.71650 19982 ft 245 kts 240°
2026-05-08 20:24 38.97022 -106.73397 19976 ft 246 kts 240°
2026-05-08 20:25 38.95985 -106.75141 19977 ft 246 kts 241°
2026-05-08 20:25 38.94942 -106.76894 19969 ft 248 kts 240°
2026-05-08 20:25 38.93892 -106.78643 19958 ft 246 kts 240°
2026-05-08 20:25 38.92853 -106.80389 19956 ft 247 kts 240°
2026-05-08 20:26 38.91814 -106.82140 19949 ft 246 kts 240°
2026-05-08 20:26 38.90766 -106.83890 19942 ft 248 kts 240°
2026-05-08 20:26 38.89711 -106.85645 19936 ft 249 kts 240°
2026-05-08 20:26 38.88660 -106.87408 19927 ft 249 kts 240°
2026-05-08 20:27 38.87963 -106.88576 19921 ft 249 kts 240°
2026-05-08 20:27 38.86906 -106.90338 19924 ft 249 kts 240°
2026-05-08 20:27 38.85851 -106.92101 19939 ft 248 kts 240°
2026-05-08 20:27 38.84796 -106.93858 19944 ft 249 kts 240°
2026-05-08 20:28 38.83744 -106.95617 19951 ft 249 kts 240°
2026-05-08 20:28 38.82691 -106.97373 19959 ft 248 kts 240°
2026-05-08 20:28 38.81635 -106.99128 19967 ft 249 kts 240°
2026-05-08 20:28 38.80580 -107.00889 19972 ft 249 kts 240°
2026-05-08 20:29 38.79524 -107.02647 19981 ft 248 kts 240°
2026-05-08 20:29 38.78468 -107.04399 19988 ft 248 kts 239°
2026-05-08 20:29 38.77410 -107.06145 19993 ft 248 kts 239°
2026-05-08 20:29 38.76364 -107.07900 19996 ft 248 kts 239°
2026-05-08 20:30 38.75311 -107.09647 20001 ft 247 kts 239°
2026-05-08 20:30 38.74261 -107.11394 20001 ft 248 kts 239°
2026-05-08 20:30 38.73208 -107.13147 19998 ft 248 kts 239°
2026-05-08 20:30 38.72145 -107.14893 19998 ft 249 kts 239°
2026-05-08 20:31 38.71088 -107.16643 20004 ft 249 kts 239°
2026-05-08 20:31 38.70035 -107.18393 19992 ft 248 kts 239°
2026-05-08 20:31 38.68982 -107.20136 19989 ft 249 kts 239°
2026-05-08 20:31 38.67924 -107.21893 19986 ft 249 kts 239°
2026-05-08 20:32 38.66861 -107.23630 19993 ft 247 kts 239°
2026-05-08 20:32 38.65813 -107.25374 19977 ft 246 kts 239°
2026-05-08 20:32 38.64770 -107.27107 19982 ft 246 kts 239°
2026-05-08 20:32 38.63714 -107.28836 19971 ft 247 kts 239°
2026-05-08 20:33 38.62662 -107.30581 19965 ft 248 kts 239°
2026-05-08 20:33 38.61600 -107.32330 19964 ft 249 kts 239°
2026-05-08 20:33 38.60542 -107.34079 19951 ft 249 kts 239°
2026-05-08 20:33 38.59474 -107.35827 19941 ft 249 kts 239°
2026-05-08 20:34 38.58418 -107.37578 19939 ft 249 kts 239°
2026-05-08 20:34 38.57350 -107.39324 19924 ft 249 kts 239°
2026-05-08 20:34 38.55234 -107.42813 19923 ft 248 kts 239°
2026-05-08 20:35 38.54161 -107.44555 19939 ft 250 kts 238°
2026-05-08 20:35 38.53096 -107.46307 19943 ft 249 kts 239°
2026-05-08 20:35 38.52040 -107.48069 19957 ft 250 kts 239°
2026-05-08 20:35 38.50981 -107.49825 19959 ft 251 kts 239°
2026-05-08 20:36 38.49896 -107.51571 19959 ft 251 kts 238°
2026-05-08 20:36 38.48814 -107.53317 19977 ft 250 kts 239°
2026-05-08 20:36 38.47753 -107.55072 19974 ft 249 kts 239°
2026-05-08 20:36 38.46689 -107.56821 19985 ft 250 kts 239°
2026-05-08 20:37 38.45623 -107.58558 19988 ft 248 kts 239°
2026-05-08 20:37 38.44563 -107.60294 19991 ft 248 kts 239°
2026-05-08 20:37 38.43506 -107.62022 20002 ft 246 kts 239°
2026-05-08 20:37 38.42453 -107.63744 20002 ft 245 kts 238°
2026-05-08 20:38 38.41402 -107.65456 20009 ft 245 kts 238°
2026-05-08 20:38 38.40366 -107.67145 20011 ft 238 kts 238°
2026-05-08 20:38 38.39356 -107.68775 20008 ft 228 kts 239°
2026-05-08 20:38 38.38377 -107.70378 19718 ft 234 kts 239°
2026-05-08 20:39 38.37362 -107.72044 19467 ft 241 kts 238°
2026-05-08 20:39 38.36317 -107.73740 19235 ft 245 kts 239°
2026-05-08 20:39 38.35277 -107.75437 18894 ft 243 kts 238°
2026-05-08 20:39 38.34229 -107.77148 18482 ft 247 kts 238°
2026-05-08 20:40 38.33166 -107.78874 18058 ft 248 kts 238°
2026-05-08 20:40 38.32093 -107.80610 17617 ft 250 kts 238°
2026-05-08 20:40 38.31018 -107.82355 17178 ft 251 kts 238°
2026-05-08 20:40 38.29941 -107.84107 16751 ft 252 kts 238°
2026-05-08 20:41 38.28862 -107.85863 16341 ft 252 kts 237°
2026-05-08 20:41 38.27774 -107.87620 15972 ft 253 kts 237°
2026-05-08 20:41 38.26684 -107.89377 15593 ft 253 kts 236°
2026-05-08 20:41 38.25595 -107.91137 15227 ft 253 kts 237°
2026-05-08 20:42 38.24514 -107.92907 14881 ft 253 kts 237°
2026-05-08 20:42 38.23430 -107.94667 14529 ft 253 kts 237°
2026-05-08 20:42 38.22336 -107.96419 14247 ft 253 kts 236°
2026-05-08 20:42 38.21251 -107.98172 13910 ft 252 kts 237°
2026-05-08 20:43 38.20169 -107.99932 13643 ft 252 kts 237°
2026-05-08 20:43 38.19083 -108.01682 13331 ft 253 kts 236°
2026-05-08 20:43 38.17992 -108.03430 12982 ft 252 kts 237°
2026-05-08 20:43 38.16908 -108.05187 12628 ft 252 kts 236°
2026-05-08 20:44 38.15837 -108.06914 12288 ft 252 kts 236°
2026-05-08 20:44 38.14754 -108.08662 12010 ft 250 kts 236°
2026-05-08 20:44 38.13694 -108.10349 11996 ft 239 kts 236°
2026-05-08 20:44 38.12689 -108.11971 11987 ft 230 kts 237°
2026-05-08 20:45 38.11705 -108.13532 11983 ft 222 kts 237°
2026-05-08 20:45 38.10753 -108.15033 11981 ft 215 kts 236°
2026-05-08 20:45 38.09820 -108.16486 11976 ft 210 kts 236°
2026-05-08 20:45 38.08904 -108.17908 11977 ft 207 kts 236°
2026-05-08 20:46 38.08004 -108.19303 11964 ft 201 kts 235°
2026-05-08 20:46 38.06796 -108.20221 11884 ft 212 kts 197°
2026-05-08 20:46 38.05345 -108.19943 11883 ft 217 kts 157°
2026-05-08 20:46 38.04227 -108.18699 11991 ft 210 kts 140°
2026-05-08 20:47 38.03064 -108.17550 12031 ft 216 kts 148°
2026-05-08 20:47 38.01829 -108.16399 12055 ft 225 kts 147°
2026-05-08 20:47 38.00558 -108.15205 12071 ft 229 kts 147°
2026-05-08 20:47 37.99342 -108.13844 11822 ft 245 kts 129°
2026-05-08 20:48 37.98689 -108.11780 11561 ft 261 kts 103°
2026-05-08 20:48 37.98449 -108.09475 11589 ft 266 kts 98°
2026-05-08 20:48 37.98193 -108.07186 11580 ft 253 kts 100°
2026-05-08 20:48 37.97886 -108.05159 11754 ft 219 kts 101°
2026-05-08 20:49 37.97714 -108.03309 11741 ft 201 kts 95°
2026-05-08 20:49 37.97640 -108.01598 11729 ft 189 kts 95°
2026-05-08 20:49 37.97383 -108.00054 11632 ft 168 kts 104°
2026-05-08 20:49 37.97092 -107.98648 11203 ft 159 kts 103°
2026-05-08 20:50 37.96793 -107.97320 10833 ft 155 kts 106°
2026-05-08 20:50 37.96497 -107.96011 10614 ft 155 kts 108°
2026-05-08 20:50 37.96205 -107.94673 10276 ft 158 kts 106°
2026-05-08 20:50 37.95926 -107.93371 9626 ft 151 kts 103°
2026-05-08 20:51 37.95651 -107.92126 9099 ft 140 kts 107°
2026-05-08 20:51 37.95412 -107.91048 9030 ft 115 kts 106°
2026-05-08 20:51 37.95239 -107.90189 9047 ft 79 kts 105°
2026-05-08 20:51 37.95164 -107.89844 9069 ft 20 kts 105°
2026-05-08 20:52 37.95143 -107.89705 9074 ft 13 kts 61°
2026-05-08 20:52 37.95218 -107.89669 9076 ft 13 kts 346°
2026-05-08 20:52 37.95256 -107.89777 9071 ft 17 kts 285°
2026-05-08 20:52 37.95292 -107.89946 9063 ft 23 kts 286°
2026-05-08 20:53 37.95337 -107.90126 9058 ft 6 kts 289°
2026-05-08 20:53 37.95360 -107.90220 9058 ft 14 kts 281°
2026-05-08 20:53 37.95398 -107.90306 9058 ft 8 kts 16°
2026-05-08 20:53 37.95406 -107.90291 9058 ft 0 kts 101°